{"data":{"norad_id":55941,"epoch":"2026-09-20T22:00:03.000096Z","epoch_age_seconds":70095,"freshness":"FRESH","line1":"1 55941U 23037AD  26263.91670139  .00034493  00000+0  24683-2 0  9991","line2":"2 55941  70.0020 152.3164 0003506 256.3756  13.5594 15.04271585  5667","mean_motion":15.04271585,"eccentricity":0.0003506,"inclination_deg":70.002,"raan_deg":152.3164,"arg_perigee_deg":256.3756,"mean_anomaly_deg":13.5594,"bstar":0.0024683,"rev_number":566,"period_min":95.727394864007,"perigee_km":551.31221676565,"apogee_km":556.1728506947,"semimajor_km":6931.8795337302,"source":"CELESTRAK","updated_at":"2026-09-21T09:00:33.327764Z"}}